| time (UTC) | temp C | wind direction | speed KPH | gust KPH | rain 1hr cm | rain 24hr cm | rain mn cm | humidity % | barometer mb |
| 20260506234051 | 17 | 157 | 4.8 | 12.9 | 0.00 | 0.13 | 0.08 | 64 | 1019.5 |
| 20260506233547 | 17 | 188 | 3.2 | 11.3 | 0.00 | 0.13 | 0.08 | 63 | 1019.4 |
| 20260506233052 | 17 | 145 | 3.2 | 11.3 | 0.00 | 0.13 | 0.08 | 64 | 1019.5 |
| 20260506232549 | 18 | 172 | 4.8 | 11.3 | 0.00 | 0.13 | 0.08 | 62 | 1019.5 |
| 20260506232044 | 18 | 177 | 1.6 | 8.0 | 0.00 | 0.13 | 0.08 | 61 | 1019.5 |
| 20260506231651 | 18 | 271 | 1.6 | 9.7 | 0.00 | 0.13 | 0.08 | 61 | 1019.5 |
| 20260506231048 | 18 | 159 | 3.2 | 9.7 | 0.00 | 0.13 | 0.08 | 61 | 1019.5 |
| 20260506230546 | 18 | 190 | 1.6 | 11.3 | 0.00 | 0.13 | 0.08 | 60 | 1019.5 |
| 20260506230056 | 18 | 38 | 1.6 | 11.3 | 0.00 | 0.13 | 0.08 | 61 | 1019.5 |
| 20260506225548 | 18 | 158 | 1.6 | 8.0 | 0.00 | 0.15 | 0.08 | 61 | 1019.6 |
| 20260506225047 | 18 | 138 | 3.2 | 11.3 | 0.00 | 0.15 | 0.08 | 58 | 1019.6 |
| 20260506224601 | 18 | 155 | 3.2 | 11.3 | 0.00 | 0.15 | 0.08 | 58 | 1019.5 |
| 20260506224118 | 18 | 191 | 3.2 | 11.3 | 0.00 | 0.15 | 0.08 | 59 | 1019.6 |
| 20260506224047 | 18 | 191 | 3.2 | 11.3 | 0.00 | 0.15 | 0.08 | 59 | 1019.6 |
| 20260506223547 | 18 | 148 | 3.2 | 11.3 | 0.00 | 0.15 | 0.08 | 57 | 1019.7 |
| 20260506223049 | 18 | 195 | 3.2 | 9.7 | 0.00 | 0.15 | 0.08 | 54 | 1019.7 |
| 20260506222550 | 18 | 148 | 3.2 | 9.7 | 0.00 | 0.15 | 0.08 | 59 | 1019.7 |
| 20260506222046 | 18 | 216 | 1.6 | 14.5 | 0.00 | 0.15 | 0.08 | 56 | 1019.7 |
| 20260506221553 | 18 | 170 | 1.6 | 14.5 | 0.00 | 0.15 | 0.08 | 58 | 1019.7 |
| 20260506221045 | 18 | 199 | 4.8 | 14.5 | 0.00 | 0.15 | 0.08 | 55 | 1019.9 |
| 20260506220548 | 18 | 213 | 3.2 | 9.7 | 0.00 | 0.15 | 0.08 | 58 | 1019.9 |
| 20260506220052 | 18 | 182 | 3.2 | 16.1 | 0.00 | 0.15 | 0.08 | 58 | 1020.0 |
| 20260506215545 | 18 | 0 | 6.4 | 16.1 | 0.00 | 0.15 | 0.08 | 55 | 1020.0 |
| 20260506215045 | 18 | 127 | 4.8 | 14.5 | 0.00 | 0.15 | 0.08 | 57 | 1020.0 |
| 20260506214607 | 18 | 168 | 1.6 | 14.5 | 0.00 | 0.15 | 0.08 | 56 | 1020.1 |
| 20260506214047 | 18 | 169 | 4.8 | 11.3 | 0.00 | 0.15 | 0.08 | 57 | 1020.1 |
| 20260506213548 | 18 | 147 | 3.2 | 14.5 | 0.00 | 0.15 | 0.08 | 58 | 1020.1 |
| 20260506213054 | 18 | 123 | 3.2 | 14.5 | 0.00 | 0.15 | 0.08 | 58 | 1020.2 |
| 20260506212546 | 18 | 188 | 3.2 | 12.9 | 0.00 | 0.15 | 0.08 | 59 | 1020.2 |
| 20260506212045 | 18 | 136 | 1.6 | 9.7 | 0.00 | 0.15 | 0.08 | 58 | 1020.2 |
| 20260506211551 | 18 | 154 | 3.2 | 11.3 | 0.00 | 0.15 | 0.08 | 59 | 1020.2 |
| 20260506211044 | 18 | 117 | 1.6 | 16.1 | 0.00 | 0.15 | 0.08 | 59 | 1020.2 |
| 20260506210546 | 17 | 191 | 1.6 | 17.7 | 0.03 | 0.15 | 0.08 | 62 | 1020.2 |
| 20260506210055 | 17 | 160 | 4.8 | 19.3 | 0.03 | 0.15 | 0.08 | 59 | 1020.2 |
| 20260506205545 | 17 | 150 | 4.8 | 19.3 | 0.03 | 0.18 | 0.08 | 59 | 1020.2 |
| 20260506205047 | 17 | 164 | 3.2 | 9.7 | 0.03 | 0.18 | 0.08 | 60 | 1020.2 |
| 20260506204559 | 17 | 124 | 3.2 | 19.3 | 0.03 | 0.18 | 0.08 | 59 | 1020.3 |
| 20260506204046 | 18 | 180 | 3.2 | 19.3 | 0.03 | 0.18 | 0.08 | 57 | 1020.2 |
| 20260506203545 | 18 | 165 | 1.6 | 14.5 | 0.03 | 0.18 | 0.08 | 59 | 1020.3 |
| 20260506203052 | 18 | 188 | 1.6 | 14.5 | 0.03 | 0.18 | 0.08 | 57 | 1020.4 |
| 20260506202545 | 18 | 153 | 4.8 | 14.5 | 0.03 | 0.18 | 0.08 | 58 | 1020.4 |
| 20260506202045 | 18 | 175 | 6.4 | 14.5 | 0.03 | 0.18 | 0.08 | 60 | 1020.5 |
| 20260506201600 | 18 | 118 | 1.6 | 9.7 | 0.03 | 0.18 | 0.08 | 61 | 1020.5 |
| 20260506201048 | 18 | 153 | 3.2 | 11.3 | 0.03 | 0.18 | 0.08 | 61 | 1020.5 |
| 20260506200546 | 17 | 193 | 3.2 | 11.3 | 0.00 | 0.15 | 0.05 | 58 | 1020.5 |
| 20260506200055 | 17 | 92 | 1.6 | 16.1 | 0.00 | 0.15 | 0.05 | 62 | 1020.6 |
| 20260506195545 | 17 | 205 | 4.8 | 20.9 | 0.00 | 0.15 | 0.05 | 61 | 1020.6 |
| 20260506195048 | 17 | 204 | 6.4 | 20.9 | 0.00 | 0.15 | 0.05 | 62 | 1020.6 |
| 20260506194604 | 17 | 194 | 3.2 | 16.1 | 0.00 | 0.15 | 0.05 | 62 | 1020.6 |
| 20260506194050 | 17 | 188 | 3.2 | 14.5 | 0.00 | 0.15 | 0.05 | 64 | 1020.7 |
| 20260506193548 | 17 | 181 | 3.2 | 14.5 | 0.00 | 0.15 | 0.05 | 65 | 1020.7 |
| 20260506193057 | 17 | 173 | 3.2 | 14.5 | 0.00 | 0.15 | 0.05 | 62 | 1020.8 |
| 20260506192545 | 16 | 0 | 1.6 | 16.1 | 0.00 | 0.15 | 0.05 | 65 | 1020.7 |
| 20260506192045 | 16 | 198 | 4.8 | 16.1 | 0.00 | 0.15 | 0.05 | 62 | 1020.8 |
| 20260506191553 | 16 | 53 | 3.2 | 12.9 | 0.00 | 0.15 | 0.05 | 63 | 1020.8 |
| 20260506191047 | 17 | 195 | 3.2 | 9.7 | 0.00 | 0.15 | 0.05 | 63 | 1020.6 |
| 20260506190629 | 17 | 161 | 4.8 | 14.5 | 0.00 | 0.15 | 0.05 | 62 | 1020.6 |
| 20260506190547 | 17 | 161 | 4.8 | 14.5 | 0.00 | 0.15 | 0.05 | 62 | 1020.6 |
| 20260506190058 | 16 | 142 | 3.2 | 17.7 | 0.00 | 0.15 | 0.05 | 63 | 1020.5 |
| 20260506185545 | 16 | 210 | 4.8 | 17.7 | 0.00 | 0.18 | 0.05 | 61 | 1020.5 |
| 20260506185045 | 17 | 166 | 4.8 | 14.5 | 0.00 | 0.18 | 0.05 | 58 | 1020.5 |
| 20260506184558 | 16 | 165 | 3.2 | 12.9 | 0.00 | 0.18 | 0.05 | 62 | 1020.6 |
| 20260506184045 | 16 | 200 | 6.4 | 12.9 | 0.00 | 0.18 | 0.05 | 59 | 1020.6 |
| 20260506183545 | 16 | 158 | 3.2 | 11.3 | 0.00 | 0.18 | 0.05 | 61 | 1020.6 |
| 20260506183100 | 16 | 0 | 1.6 | 12.9 | 0.00 | 0.18 | 0.05 | 63 | 1020.6 |
| 20260506182547 | 16 | 218 | 4.8 | 14.5 | 0.00 | 0.18 | 0.05 | 60 | 1020.7 |
| 20260506182044 | 16 | 186 | 3.2 | 14.5 | 0.00 | 0.18 | 0.05 | 61 | 1020.7 |
| 20260506181551 | 16 | 202 | 4.8 | 14.5 | 0.00 | 0.18 | 0.05 | 58 | 1020.7 |
| 20260506181045 | 16 | 143 | 4.8 | 11.3 | 0.00 | 0.18 | 0.05 | 61 | 1020.7 |
| 20260506180545 | 16 | 195 | 4.8 | 9.7 | 0.00 | 0.18 | 0.05 | 60 | 1020.7 |
| 20260506180055 | 16 | 195 | 0.0 | 8.0 | 0.00 | 0.18 | 0.05 | 62 | 1020.6 |
| 20260506175545 | 16 | 156 | 1.6 | 8.0 | 0.00 | 0.18 | 0.05 | 62 | 1020.6 |
| 20260506175049 | 16 | 173 | 3.2 | 8.0 | 0.00 | 0.18 | 0.05 | 62 | 1020.6 |
| 20260506174553 | 16 | 180 | 0.0 | 8.0 | 0.00 | 0.18 | 0.05 | 63 | 1020.6 |
| 20260506174050 | 15 | 0 | 1.6 | 8.0 | 0.00 | 0.18 | 0.05 | 63 | 1020.8 |
| 20260506173548 | 15 | 176 | 3.2 | 8.0 | 0.00 | 0.18 | 0.05 | 60 | 1020.8 |
| 20260506173051 | 15 | 0 | 1.6 | 6.4 | 0.00 | 0.18 | 0.05 | 65 | 1020.7 |
| 20260506172545 | 15 | 190 | 1.6 | 6.4 | 0.00 | 0.18 | 0.05 | 63 | 1020.7 |
| 20260506172048 | 15 | 178 | 0.0 | 6.4 | 0.00 | 0.18 | 0.05 | 68 | 1020.6 |
| 20260506171559 | 14 | 212 | 0.0 | 6.4 | 0.00 | 0.18 | 0.05 | 68 | 1020.6 |
| 20260506171047 | 14 | 77 | 0.0 | 6.4 | 0.00 | 0.18 | 0.05 | 68 | 1020.6 |
| 20260506170549 | 13 | 43 | 0.0 | 6.4 | 0.00 | 0.18 | 0.05 | 68 | 1020.6 |
| 20260506165545 | 13 | 0 | 1.6 | 8.0 | 0.00 | 0.20 | 0.05 | 70 | 1020.5 |
| 20260506165046 | 13 | 155 | 0.0 | 8.0 | 0.00 | 0.20 | 0.05 | 70 | 1020.3 |
| 20260506164600 | 13 | 225 | 1.6 | 8.0 | 0.00 | 0.20 | 0.05 | 70 | 1020.2 |
| 20260506164044 | 13 | 215 | 1.6 | 6.4 | 0.00 | 0.20 | 0.05 | 69 | 1020.2 |
| 20260506163544 | 13 | 167 | 0.0 | 4.8 | 0.00 | 0.20 | 0.05 | 71 | 1020.1 |
| 20260506163105 | 12 | 0 | 0.0 | 3.2 | 0.00 | 0.20 | 0.05 | 70 | 1020.1 |
| 20260506162546 | 12 | 0 | 0.0 | 6.4 | 0.00 | 0.20 | 0.05 | 75 | 1020.0 |
| 20260506162047 | 12 | 0 | 0.0 | 6.4 | 0.00 | 0.20 | 0.05 | 75 | 1020.0 |
| 20260506161553 | 11 | 206 | 0.0 | 1.6 | 0.03 | 0.20 | 0.05 | 80 | 1020.0 |
| 20260506161045 | 11 | 0 | 0.0 | 3.2 | 0.03 | 0.20 | 0.05 | 81 | 1019.9 |
| 20260506160545 | 10 | 0 | 0.0 | 3.2 | 0.03 | 0.20 | 0.05 | 83 | 1019.9 |
| 20260506160053 | 10 | 0 | 0.0 | 3.2 | 0.03 | 0.20 | 0.05 | 83 | 1019.8 |
| 20260506155546 | 9 | 0 | 0.0 | 1.6 | 0.03 | 0.20 | 0.05 | 87 | 1019.8 |
| 20260506155048 | 8 | 0 | 0.0 | 1.6 | 0.03 | 0.20 | 0.05 | 90 | 1019.8 |
| 20260506154612 | 8 | 0 | 0.0 | 3.2 | 0.03 | 0.20 | 0.05 | 91 | 1019.8 |
| 20260506154045 | 7 | 0 | 0.0 | 3.2 | 0.03 | 0.20 | 0.05 | 93 | 1019.7 |
| 20260506153544 | 7 | 102 | 0.0 | 3.2 | 0.03 | 0.20 | 0.05 | 96 | 1019.7 |
| 20260506153055 | 6 | 0 | 0.0 | 3.2 | 0.03 | 0.20 | 0.05 | 96 | 1019.6 |
| 20260506152545 | 6 | 0 | 0.0 | 1.6 | 0.03 | 0.20 | 0.05 | 96 | 1019.6 |
| 20260506152045 | 6 | 0 | 0.0 | 3.2 | 0.03 | 0.20 | 0.05 | 96 | 1019.6 |
| 20260506151551 | 6 | 110 | 0.0 | 3.2 | 0.00 | 0.18 | 0.03 | 96 | 1019.7 |
| 20260506151044 | 6 | 0 | 0.0 | 3.2 | 0.00 | 0.18 | 0.03 | 96 | 1019.7 |
| 20260506150547 | 5 | 0 | 0.0 | 4.8 | 0.00 | 0.18 | 0.03 | 96 | 1019.7 |
| 20260506150056 | 5 | 0 | 0.0 | 4.8 | 0.00 | 0.18 | 0.03 | 96 | 1019.6 |
| 20260506145547 | 5 | 0 | 0.0 | 4.8 | 0.00 | 0.20 | 0.03 | 96 | 1019.6 |
| 20260506145050 | 5 | 0 | 0.0 | 4.8 | 0.00 | 0.20 | 0.03 | 96 | 1019.6 |
| 20260506144600 | 5 | 0 | 0.0 | 3.2 | 0.00 | 0.20 | 0.03 | 96 | 1019.7 |
| 20260506144048 | 4 | 0 | 0.0 | 3.2 | 0.00 | 0.20 | 0.03 | 96 | 1019.6 |
| 20260506143548 | 4 | 0 | 0.0 | 3.2 | 0.00 | 0.20 | 0.03 | 96 | 1019.6 |
| 20260506143055 | 4 | 0 | 0.0 | 3.2 | 0.00 | 0.20 | 0.03 | 96 | 1019.5 |
| 20260506142551 | 3 | 249 | 0.0 | 3.2 | 0.00 | 0.20 | 0.03 | 95 | 1019.4 |
| 20260506142046 | 3 | 0 | 0.0 | 1.6 | 0.00 | 0.20 | 0.03 | 95 | 1019.5 |
| 20260506141603 | 3 | 0 | 0.0 | 1.6 | 0.00 | 0.20 | 0.03 | 95 | 1019.4 |
| 20260506141045 | 3 | 0 | 0.0 | 1.6 | 0.00 | 0.20 | 0.03 | 95 | 1019.4 |
| 20260506140545 | 3 | 0 | 0.0 | 1.6 | 0.00 | 0.20 | 0.03 | 95 | 1019.3 |
| 20260506140112 | 2 | 0 | 0.0 | 1.6 | 0.00 | 0.20 | 0.03 | 95 | 1019.4 |
| 20260506135547 | 2 | 0 | 0.0 | 0.0 | 0.00 | 0.23 | 0.03 | 95 | 1019.3 |
| 20260506135044 | 2 | 0 | 0.0 | 3.2 | 0.00 | 0.23 | 0.03 | 95 | 1019.3 |
| 20260506134553 | 2 | 0 | 0.0 | 3.2 | 0.00 | 0.23 | 0.03 | 94 | 1019.3 |
| 20260506134044 | 2 | 0 | 0.0 | 0.0 | 0.00 | 0.23 | 0.03 | 94 | 1019.3 |
| 20260506133545 | 2 | 0 | 0.0 | 0.0 | 0.00 | 0.23 | 0.03 | 94 | 1019.2 |
| 20260506133057 | 2 | 0 | 0.0 | 0.0 | 0.00 | 0.23 | 0.03 | 94 | 1019.2 |
| 20260506132544 | 2 | 0 | 0.0 | 1.6 | 0.00 | 0.23 | 0.03 | 94 | 1019.1 |
| 20260506132045 | 2 | 0 | 0.0 | 1.6 | 0.00 | 0.23 | 0.03 | 94 | 1019.1 |
| 20260506131556 | 2 | 0 | 0.0 | 1.6 | 0.00 | 0.23 | 0.03 | 94 | 1019.0 |
| 20260506131045 | 2 | 0 | 0.0 | 1.6 | 0.00 | 0.23 | 0.03 | 94 | 1019.0 |
| 20260506130545 | 2 | 0 | 0.0 | 1.6 | 0.00 | 0.23 | 0.03 | 94 | 1018.8 |
| 20260506130059 | 2 | 0 | 0.0 | 0.0 | 0.00 | 0.23 | 0.03 | 94 | 1018.8 |
| 20260506125545 | 2 | 0 | 0.0 | 0.0 | 0.00 | 0.25 | 0.03 | 94 | 1018.8 |
| 20260506125045 | 2 | 0 | 0.0 | 0.0 | 0.00 | 0.25 | 0.03 | 94 | 1018.7 |
| 20260506124558 | 2 | 0 | 0.0 | 0.0 | 0.00 | 0.25 | 0.03 | 94 | 1018.7 |
| 20260506124048 | 2 | 0 | 0.0 | 0.0 | 0.00 | 0.25 | 0.03 | 94 | 1018.6 |
| 20260506123548 | 2 | 0 | 0.0 | 0.0 | 0.00 | 0.25 | 0.03 | 94 | 1018.6 |
| 20260506123054 | 2 | 0 | 0.0 | 0.0 | 0.00 | 0.25 | 0.03 | 94 | 1018.6 |
| 20260506122545 | 2 | 0 | 0.0 | 0.0 | 0.00 | 0.25 | 0.03 | 94 | 1018.5 |
| 20260506122045 | 2 | 0 | 0.0 | 0.0 | 0.00 | 0.25 | 0.03 | 94 | 1018.5 |
| 20260506121550 | 2 | 0 | 0.0 | 0.0 | 0.00 | 0.25 | 0.03 | 94 | 1018.5 |
| 20260506121044 | 2 | 0 | 0.0 | 0.0 | 0.00 | 0.25 | 0.03 | 94 | 1018.6 |
| 20260506120545 | 2 | 0 | 0.0 | 0.0 | 0.00 | 0.25 | 0.03 | 94 | 1018.5 |
| 20260506120055 | 2 | 0 | 0.0 | 1.6 | 0.00 | 0.25 | 0.03 | 94 | 1018.5 |
| 20260506115545 | 2 | 0 | 0.0 | 1.6 | 0.00 | 0.28 | 0.03 | 94 | 1018.5 |
| 20260506115048 | 2 | 0 | 0.0 | 1.6 | 0.00 | 0.28 | 0.03 | 94 | 1018.5 |
| 20260506114600 | 2 | 0 | 0.0 | 1.6 | 0.00 | 0.28 | 0.03 | 94 | 1018.5 |
| 20260506114048 | 2 | 0 | 0.0 | 1.6 | 0.00 | 0.28 | 0.03 | 94 | 1018.5 |
| 20260506113545 | 2 | 0 | 0.0 | 1.6 | 0.00 | 0.28 | 0.03 | 94 | 1018.5 |
| 20260506113059 | 2 | 0 | 0.0 | 1.6 | 0.00 | 0.28 | 0.03 | 94 | 1018.5 |
| 20260506112544 | 2 | 0 | 0.0 | 0.0 | 0.00 | 0.28 | 0.03 | 94 | 1018.5 |
| 20260506112044 | 2 | 0 | 0.0 | 1.6 | 0.00 | 0.28 | 0.03 | 93 | 1018.5 |
| 20260506111602 | 2 | 0 | 0.0 | 1.6 | 0.00 | 0.28 | 0.03 | 93 | 1018.4 |
| 20260506111046 | 2 | 0 | 0.0 | 1.6 | 0.00 | 0.28 | 0.03 | 93 | 1018.5 |
| 20260506110545 | 2 | 0 | 0.0 | 0.0 | 0.00 | 0.28 | 0.03 | 93 | 1018.4 |
| 20260506110050 | 2 | 0 | 0.0 | 1.6 | 0.00 | 0.28 | 0.03 | 93 | 1018.4 |
| 20260506105545 | 2 | 0 | 0.0 | 3.2 | 0.00 | 0.30 | 0.03 | 93 | 1018.4 |
| 20260506105044 | 2 | 0 | 0.0 | 3.2 | 0.00 | 0.30 | 0.03 | 93 | 1018.3 |
| 20260506104557 | 2 | 0 | 0.0 | 1.6 | 0.00 | 0.30 | 0.03 | 93 | 1018.3 |
| 20260506104048 | 2 | 0 | 0.0 | 1.6 | 0.00 | 0.30 | 0.03 | 93 | 1018.3 |
| 20260506103545 | 3 | 0 | 0.0 | 1.6 | 0.00 | 0.30 | 0.03 | 93 | 1018.3 |
| 20260506103101 | 3 | 0 | 0.0 | 0.0 | 0.00 | 0.30 | 0.03 | 93 | 1018.3 |
| 20260506102547 | 3 | 0 | 0.0 | 0.0 | 0.00 | 0.30 | 0.03 | 93 | 1018.3 |
| 20260506102044 | 3 | 0 | 0.0 | 0.0 | 0.00 | 0.30 | 0.03 | 93 | 1018.3 |
| 20260506101553 | 3 | 0 | 0.0 | 1.6 | 0.00 | 0.30 | 0.03 | 93 | 1018.3 |
| 20260506101046 | 3 | 0 | 0.0 | 1.6 | 0.00 | 0.30 | 0.03 | 94 | 1018.3 |
| 20260506100544 | 3 | 0 | 0.0 | 1.6 | 0.00 | 0.30 | 0.03 | 93 | 1018.3 |
| 20260506100100 | 3 | 0 | 0.0 | 1.6 | 0.00 | 0.30 | 0.03 | 94 | 1018.3 |
| 20260506095545 | 3 | 0 | 0.0 | 1.6 | 0.00 | 0.30 | 0.03 | 93 | 1018.4 |
| 20260506095047 | 3 | 0 | 0.0 | 3.2 | 0.00 | 0.30 | 0.03 | 93 | 1018.4 |
| 20260506094555 | 4 | 0 | 0.0 | 3.2 | 0.00 | 0.30 | 0.03 | 93 | 1018.3 |
| 20260506094044 | 4 | 0 | 0.0 | 3.2 | 0.00 | 0.30 | 0.03 | 93 | 1018.3 |
| 20260506093547 | 4 | 0 | 0.0 | 3.2 | 0.00 | 0.30 | 0.03 | 93 | 1018.3 |
| 20260506093051 | 4 | 0 | 0.0 | 3.2 | 0.00 | 0.30 | 0.03 | 93 | 1018.2 |
| 20260506092546 | 4 | 0 | 0.0 | 1.6 | 0.00 | 0.30 | 0.03 | 93 | 1018.2 |
| 20260506092044 | 4 | 0 | 0.0 | 1.6 | 0.00 | 0.30 | 0.03 | 93 | 1018.2 |
| 20260506091554 | 4 | 0 | 0.0 | 0.0 | 0.00 | 0.30 | 0.03 | 93 | 1018.3 |
| 20260506091047 | 4 | 0 | 0.0 | 0.0 | 0.00 | 0.30 | 0.03 | 93 | 1018.3 |
| 20260506090544 | 5 | 0 | 0.0 | 0.0 | 0.00 | 0.30 | 0.03 | 93 | 1018.4 |
| 20260506090050 | 5 | 0 | 0.0 | 0.0 | 0.00 | 0.30 | 0.03 | 93 | 1018.4 |
| 20260506085544 | 5 | 0 | 0.0 | 0.0 | 0.00 | 0.33 | 0.03 | 93 | 1018.4 |
| 20260506085047 | 5 | 0 | 0.0 | 0.0 | 0.00 | 0.33 | 0.03 | 93 | 1018.5 |
| 20260506084554 | 5 | 0 | 0.0 | 0.0 | 0.00 | 0.33 | 0.03 | 93 | 1018.7 |
| 20260506084045 | 5 | 0 | 0.0 | 1.6 | 0.03 | 0.33 | 0.03 | 93 | 1018.6 |
| 20260506083545 | 5 | 0 | 0.0 | 1.6 | 0.03 | 0.33 | 0.03 | 93 | 1018.7 |
| 20260506083052 | 5 | 0 | 0.0 | 1.6 | 0.03 | 0.33 | 0.03 | 93 | 1018.7 |
| 20260506082618 | 5 | 0 | 0.0 | 1.6 | 0.03 | 0.33 | 0.03 | 93 | 1018.8 |
| 20260506082045 | 5 | 0 | 0.0 | 1.6 | 0.03 | 0.33 | 0.03 | 93 | 1018.8 |
| 20260506081559 | 5 | 0 | 0.0 | 1.6 | 0.03 | 0.33 | 0.03 | 93 | 1018.8 |
| 20260506081045 | 5 | 0 | 0.0 | 1.6 | 0.03 | 0.33 | 0.03 | 93 | 1018.9 |
| 20260506080546 | 5 | 0 | 0.0 | 1.6 | 0.03 | 0.33 | 0.03 | 93 | 1018.9 |
| 20260506073058 | 5 | 168 | 0.0 | 9.7 | 0.00 | 0.36 | 0.00 | 93 | 1019.2 |
| 20260506072544 | 5 | 0 | 0.0 | 9.7 | 0.00 | 0.36 | 0.00 | 93 | 1019.2 |
| 20260506072044 | 5 | 224 | 1.6 | 8.0 | 0.00 | 0.36 | 0.00 | 93 | 1019.2 |
| 20260506071551 | 5 | 188 | 0.0 | 6.4 | 0.00 | 0.36 | 0.00 | 93 | 1019.2 |
| 20260506071046 | 5 | 0 | 0.0 | 6.4 | 0.00 | 0.36 | 0.00 | 93 | 1019.2 |
| 20260506070544 | 5 | 159 | 0.0 | 3.2 | 0.00 | 0.36 | 0.00 | 93 | 1019.2 |
| 20260506062045 | 5 | 158 | 0.0 | 1.6 | 0.00 | 0.38 | 0.36 | 92 | 1018.7 |
| 20260506061556 | 5 | 0 | 0.0 | 1.6 | 0.00 | 0.38 | 0.36 | 92 | 1018.8 |
| 20260506061048 | 5 | 0 | 0.0 | 1.6 | 0.00 | 0.38 | 0.36 | 92 | 1018.9 |
| 20260506060546 | 5 | 0 | 0.0 | 1.6 | 0.00 | 0.38 | 0.36 | 92 | 1018.9 |
| 20260506051046 | 5 | 0 | 0.0 | 1.6 | 0.00 | 0.41 | 0.36 | 92 | 1018.8 |
| 20260506050547 | 5 | 0 | 0.0 | 1.6 | 0.00 | 0.41 | 0.36 | 92 | 1018.8 |
| 20260506045049 | 5 | 0 | 0.0 | 4.8 | 0.03 | 0.43 | 0.36 | 92 | 1018.7 |
| 20260506044623 | 5 | 66 | 1.6 | 4.8 | 0.03 | 0.43 | 0.36 | 92 | 1018.7 |
| 20260506044046 | 5 | 0 | 0.0 | 4.8 | 0.03 | 0.43 | 0.36 | 92 | 1018.6 |
| 20260506043547 | 5 | 67 | 1.6 | 4.8 | 0.03 | 0.43 | 0.36 | 92 | 1018.5 |
| 20260506043054 | 5 | 0 | 1.6 | 4.8 | 0.03 | 0.43 | 0.36 | 92 | 1018.5 |
| 20260506042547 | 5 | 94 | 1.6 | 6.4 | 0.03 | 0.43 | 0.36 | 92 | 1018.5 |
| 20260506042046 | 5 | 167 | 1.6 | 6.4 | 0.03 | 0.43 | 0.36 | 92 | 1018.4 |
| 20260506041559 | 5 | 0 | 0.0 | 4.8 | 0.03 | 0.43 | 0.36 | 92 | 1018.3 |
| 20260506041044 | 5 | 97 | 0.0 | 4.8 | 0.03 | 0.43 | 0.36 | 92 | 1018.2 |
| 20260506040546 | 5 | 126 | 1.6 | 4.8 | 0.03 | 0.43 | 0.36 | 92 | 1018.2 |
| 20260506040056 | 5 | 0 | 1.6 | 4.8 | 0.03 | 0.43 | 0.36 | 91 | 1018.0 |
| 20260506035547 | 5 | 172 | 0.0 | 4.8 | 0.00 | 0.41 | 0.33 | 91 | 1018.0 |
| 20260506035045 | 5 | 129 | 0.0 | 6.4 | 0.00 | 0.41 | 0.33 | 91 | 1017.8 |
| 20260506034552 | 5 | 165 | 1.6 | 6.4 | 0.00 | 0.41 | 0.33 | 91 | 1017.7 |
| 20260506034046 | 5 | 144 | 0.0 | 4.8 | 0.00 | 0.41 | 0.33 | 91 | 1017.7 |
| 20260506033547 | 5 | 203 | 0.0 | 4.8 | 0.00 | 0.41 | 0.33 | 91 | 1017.6 |
| 20260506033054 | 5 | 0 | 1.6 | 4.8 | 0.00 | 0.41 | 0.33 | 91 | 1017.6 |
| 20260506032547 | 5 | 0 | 0.0 | 3.2 | 0.00 | 0.41 | 0.33 | 91 | 1017.4 |
| 20260506032047 | 6 | 0 | 0.0 | 3.2 | 0.00 | 0.41 | 0.33 | 91 | 1017.4 |
| 20260506031551 | 6 | 320 | 0.0 | 4.8 | 0.00 | 0.41 | 0.33 | 90 | 1017.4 |
| 20260506031045 | 6 | 275 | 0.0 | 4.8 | 0.00 | 0.41 | 0.33 | 90 | 1017.4 |
| 20260506030543 | 6 | 0 | 0.0 | 3.2 | 0.00 | 0.41 | 0.33 | 90 | 1017.3 |
| 20260506030057 | 6 | 182 | 1.6 | 6.4 | 0.00 | 0.41 | 0.33 | 89 | 1017.2 |
| 20260506025544 | 6 | 0 | 0.0 | 6.4 | 0.00 | 0.41 | 0.33 | 89 | 1017.1 |
| 20260506025047 | 6 | 162 | 1.6 | 6.4 | 0.00 | 0.41 | 0.33 | 89 | 1017.1 |
| 20260506024559 | 6 | 0 | 0.0 | 4.8 | 0.00 | 0.41 | 0.33 | 89 | 1017.0 |
| 20260506024045 | 6 | 156 | 0.0 | 1.6 | 0.00 | 0.41 | 0.33 | 88 | 1017.0 |
| 20260506023546 | 6 | 0 | 0.0 | 3.2 | 0.00 | 0.41 | 0.33 | 89 | 1016.9 |
| 20260506023100 | 6 | 67 | 0.0 | 6.4 | 0.00 | 0.41 | 0.33 | 88 | 1016.9 |
| 20260506022543 | 6 | 0 | 0.0 | 6.4 | 0.00 | 0.41 | 0.33 | 88 | 1016.8 |
| 20260506022045 | 6 | 0 | 0.0 | 4.8 | 0.00 | 0.41 | 0.33 | 88 | 1016.8 |
| 20260506021606 | 6 | 44 | 0.0 | 4.8 | 0.00 | 0.41 | 0.33 | 87 | 1016.7 |
| 20260506021044 | 6 | 0 | 0.0 | 4.8 | 0.00 | 0.41 | 0.33 | 87 | 1016.8 |
| 20260506020546 | 6 | 0 | 0.0 | 4.8 | 0.00 | 0.41 | 0.33 | 86 | 1016.7 |
| 20260506020049 | 6 | 0 | 1.6 | 6.4 | 0.00 | 0.41 | 0.33 | 85 | 1016.6 |
| 20260506015547 | 6 | 43 | 0.0 | 8.0 | 0.00 | 0.41 | 0.33 | 85 | 1016.6 |
| 20260506015047 | 6 | 209 | 1.6 | 8.0 | 0.00 | 0.41 | 0.33 | 85 | 1016.7 |
| 20260506014558 | 6 | 0 | 1.6 | 8.0 | 0.00 | 0.41 | 0.33 | 83 | 1016.5 |
| 20260506014044 | 6 | 142 | 1.6 | 8.0 | 0.00 | 0.41 | 0.33 | 83 | 1016.5 |
| 20260506013544 | 7 | 341 | 0.0 | 6.4 | 0.00 | 0.41 | 0.33 | 84 | 1016.5 |
| 20260506013104 | 7 | 0 | 0.0 | 6.4 | 0.00 | 0.41 | 0.33 | 84 | 1016.4 |
| 20260506012547 | 7 | 178 | 1.6 | 6.4 | 0.00 | 0.41 | 0.33 | 82 | 1016.4 |
| 20260506012047 | 7 | 0 | 1.6 | 4.8 | 0.00 | 0.41 | 0.33 | 81 | 1016.4 |
| 20260506011555 | 7 | 62 | 1.6 | 8.0 | 0.03 | 0.41 | 0.33 | 81 | 1016.5 |
| 20260506011048 | 7 | 0 | 1.6 | 9.7 | 0.03 | 0.41 | 0.33 | 81 | 1016.5 |
| 20260506010545 | 7 | 98 | 1.6 | 9.7 | 0.03 | 0.41 | 0.33 | 81 | 1016.4 |
| 20260506010112 | 7 | 0 | 3.2 | 8.0 | 0.03 | 0.41 | 0.33 | 81 | 1016.3 |
| 20260506005547 | 7 | 310 | 1.6 | 9.7 | 0.03 | 0.41 | 0.33 | 79 | 1016.3 |
| 20260506005044 | 7 | 273 | 3.2 | 9.7 | 0.03 | 0.41 | 0.33 | 78 | 1016.2 |
| 20260506004554 | 8 | 95 | 1.6 | 9.7 | 0.03 | 0.41 | 0.33 | 79 | 1016.2 |
| 20260506004048 | 8 | 309 | 0.0 | 6.4 | 0.03 | 0.41 | 0.33 | 78 | 1016.0 |
| 20260506003545 | 8 | 0 | 1.6 | 9.7 | 0.03 | 0.41 | 0.33 | 78 | 1016.1 |
| 20260506003052 | 8 | 351 | 1.6 | 9.7 | 0.03 | 0.41 | 0.33 | 75 | 1015.9 |
| 20260506002545 | 8 | 154 | 0.0 | 16.1 | 0.03 | 0.41 | 0.33 | 77 | 1015.9 |
| 20260506002045 | 8 | 242 | 1.6 | 16.1 | 0.00 | 0.38 | 0.30 | 78 | 1016.0 |
| 20260506001551 | 8 | 0 | 3.2 | 16.1 | 0.00 | 0.38 | 0.30 | 75 | 1015.8 |
| 20260506001045 | 8 | 338 | 3.2 | 12.9 | 0.00 | 0.38 | 0.30 | 76 | 1015.9 |
| 20260506000544 | 8 | 59 | 1.6 | 9.7 | 0.00 | 0.38 | 0.30 | 79 | 1015.9 |
| 20260506000056 | 8 | 0 | 1.6 | 14.5 | 0.00 | 0.38 | 0.30 | 79 | 1015.8 |
| 20260505235545 | 8 | 302 | 1.6 | 14.5 | 0.00 | 0.38 | 0.30 | 77 | 1015.9 |
| 20260505235048 | 8 | 142 | 3.2 | 11.3 | 0.00 | 0.38 | 0.30 | 73 | 1015.7 |
| 20260505234607 | 8 | 0 | 1.6 | 11.3 | 0.00 | 0.38 | 0.30 | 73 | 1015.7 |